Location: Grand Lestr�onec
(48.4833°N, 4.3000°W)
Time: 07:55:41
(UTC+00:00)

Daily predictions for brighter satellites

Satellite Brightness Start Highest point End
(mag) Time Altitude Azimuth Time Altitude Azimuth Time Altitude Azimuth
Cosmos 1300 3.0 17:25:58 10° N 17:29:40 45° ENE 17:33:19 10° SSE
NOSS 7 (H) 4.1 17:28:44 10° SW 17:32:05 88° ESE 17:35:01 10° NE
Cosmos 1486 Rocket 4.4 17:29:18 10° SSW 17:34:31 68° WNW 17:39:45 10° NNE
GENESIS II 4.5 17:31:01 10° SSW 17:34:56 57° SE 17:38:53 10° NE
Landsat 5 3.3 17:31:06 10° NNE 17:35:05 76° ESE 17:38:55 10° S
Cosmos 1953 4.2 17:31:49 10° NNW 17:35:26 34° W 17:39:02 10° SSW
ADEOS Rocket 4.0 17:33:12 10° N 17:39:03 46° WNW 17:44:26 10° SW
CREW DRAGON DEMO-1 DEB 3.3 17:36:17 10° WNW 17:39:05 42° N 17:41:52 10° ENE
Lacrosse 5 2.3 17:34:15 10° NW 17:39:08 45° NNE 17:43:59 10° E
Cosmos 1943 3.3 17:36:11 10° NNW 17:41:54 84° WSW 17:47:33 10° SSE
ISS -1.4 17:41:45 10° SSE 17:42:51 11° SE 17:43:58 10° ESE
Cosmos 1726 Rocket 3.9 17:38:43 10° N 17:42:53 42° ENE 17:47:03 10° SSE
ERS-2 3.9 17:42:20 10° ENE 17:44:21 14° E 17:46:21 10° SE
Cosmos 1939 Rocket 3.2 17:41:39 10° SE 17:45:35 45° ENE 17:49:30 10° N
Meteor 1-24 Rocket 3.7 17:42:37 10° S 17:47:49 56° E 17:53:01 10° NNE
COSMOS 2455 3.6 17:43:00 10° S 17:48:22 35° ESE 17:53:46 10° NE
Cosmos 1674 4.4 17:48:26 10° SW 17:51:58 34° WNW 17:55:32 10° N
Cosmos 1833 Rocket 4.4 17:49:44 10° N 17:52:26 13° NNE 17:54:41 11° NE
Cosmos 2082 Rocket 4.2 17:53:06 10° NNE 17:53:50 10° NNE 17:54:36 10° NNE
Cosmos 1315 Rocket 2.8 17:51:31 10° NNW 17:55:30 87° W 17:59:30 10° S
IRS-1C Rocket 4.4 17:51:40 10° SE 17:56:35 42° ENE 18:01:31 10° N
CZ-4 R/B 2.3 17:54:34 10° ESE 17:58:01 26° ENE 18:01:24 10° N
Feng Yun 1-1 Rocket 4.2 17:53:56 10° SE 17:59:14 58° ENE 18:04:41 10° N
NOSS 3-4 (A) 4.4 17:54:53 10° WSW 18:00:28 40° NNW 18:06:32 10° NE
NOSS 3-4 (C) 4.4 17:55:01 10° WSW 18:00:37 40° NNW 18:06:42 10° NE
COSMO-SKYMED 1 3.1 17:57:57 10° NNE 18:02:03 39° E 18:06:07 10° SSE
Cosmos 1503 Rocket 4.4 17:57:10 10° SSW 18:02:30 68° WNW 18:07:54 10° NNE
Cosmos 2279 Rocket 4.0 17:56:28 10° N 18:02:47 77° E 18:09:02 10° SSE
Cosmos 2227 4.4 17:59:41 10° SSW 18:05:19 76° WNW 18:11:03 10° NNE
Cosmos 2227 Rocket 4.3 18:04:52 10° W 18:08:51 19° NW 18:12:52 10° N
CZ-4B R/B 1.5 18:08:56 10° NNE 18:12:17 52° E 18:15:31 10° S
H-2A R/B 4.2 18:09:38 10° SSW 18:13:21 35° W 18:17:12 10° NNW
Okean-O 3.1 18:10:04 10° SE 18:14:07 36° ENE 18:18:12 10° N
Cosmos 1844 Rocket 3.4 18:10:34 10° SSE 18:15:35 34° ESE 18:19:24 16° NE
CZ-2C R/B 3.2 18:10:22 10° SSE 18:15:35 62° ENE 18:21:07 10° N
CSL-04 DEB 4.4 18:11:48 10° NNE 18:16:03 76° ESE 18:20:09 10° S
Okean O Rocket 2.6 18:12:40 10° S 18:17:00 51° W 18:21:20 10° NNW
Cosmos 1626 3.8 18:14:07 10° SW 18:17:32 35° WNW 18:20:59 10° N
ATLAS 2AS CENTAUR R/B 3.8 18:10:24 10° WSW 18:18:02 48° NW 18:25:29 10° NE
H-2A R/B 2.4 18:13:31 10° SE 18:18:08 39° ENE 18:22:51 10° N
Cosmos 1689 Rocket 3.9 18:20:00 16° SE 18:20:00 16° SE 18:21:05 10° SE
Aureole 2 Rocket 3.0 18:16:21 10° SSE 18:19:00 28° ESE 18:19:29 27° E
Cosmos 158 Rocket 4.4 18:15:53 10° NNW 18:20:58 43° ENE 18:26:04 10° SE
Cosmos 1680 Rocket 4.2 18:18:06 10° N 18:22:50 32° NE 18:26:36 15° ESE
SKYMED 3 4.5 18:21:46 10° NNE 18:26:08 68° ESE 18:30:26 10° S
CZ-2D R/B 3.2 18:27:41 10° SSE 18:31:34 87° WSW 18:35:26 10° NNW
Cosmos 1818 4.0 18:27:04 10° S 18:32:08 42° ESE 18:34:52 24° ENE
TELKOM 3 4.1 18:29:58 10° SW 18:32:08 30° SSE 18:32:11 30° SSE
SAR-Lupe-4 4.1 18:31:27 30° ENE 18:32:22 36° E 18:35:42 10° SSE
Meteor 2-10 Rocket 3.6 18:27:10 10° NNW 18:32:46 87° ENE 18:38:05 10° S
H-2A R/B 3.4 18:30:18 10° N 18:34:32 42° WNW 18:38:39 10° SW
Cosmos 489 Rocket 4.5 18:28:21 10° NNW 18:34:43 65° ENE 18:41:00 10° SE
YAOGAN 1 2.6 18:31:46 10° SSE 18:35:59 55° ENE 18:40:13 10° N
Cosmos 1892 Rocket 3.5 18:32:44 10° S 18:37:05 83° WNW 18:41:27 10° N
CSL-04 Rocket 4.0 18:34:55 10° SE 18:39:59 43° ENE 18:45:10 10° N
Helios 1A Rocket 3.1 18:36:55 10° SE 18:40:55 49° ENE 18:44:57 10° N
SAR-Lupe-1 4.2 18:42:35 40° ENE 18:43:18 47° E 18:46:45 10° S
USA 234 3.7 18:40:19 24° ENE 18:43:58 47° NNE 18:50:11 10° WNW
RESURS DK-1 4.5 18:40:40 10° W 18:43:58 23° NW 18:47:18 10° N
Aureole 1 4.0 18:41:04 10° NNW 18:44:07 58° ENE 18:44:09 58° ENE
ATLAS 5 CENTAUR R/B 2.6 18:40:40 10° WSW 18:44:33 39° NW 18:47:38 17° NNE
Cosmos 1092 Rocket 4.2 18:40:03 10° SSE 18:45:52 44° E 18:51:41 10° NNE
Iridium 4 Rocket 4.0 18:40:35 10° N 18:45:59 41° ENE 18:51:00 10° SSE
MOS 1 Rocket 2.9 18:42:00 10° NNE 18:46:22 83° ESE 18:50:38 10° SSW
Meteor 2-1 Rocket 4.1 18:41:32 10° N 18:47:09 75° ENE 18:52:39 10° SSE
Cosmos 1812 Rocket 4.0 18:44:48 10° N 18:48:54 38° ENE 18:48:54 38° ENE
SKYMED 2 3.8 18:45:50 10° N 18:50:10 70° WNW 18:54:29 10° SSW
Cosmos 2344 4.3 18:43:01 10° NW 18:51:38 55° NE 18:59:36 22° ESE
SJ 16-02 1.3 18:50:05 10° S 18:54:26 63° ESE 18:55:59 37° NE
SJ-11-01 4.1 18:50:27 10° SSE 18:55:07 72° ENE 18:59:49 10° N
Aureole 3 2.7 18:53:09 10° N 18:56:48 89° NE 18:59:54 10° S
Cosmos 2112 Rocket 4.1 18:55:20 10° NNW 19:00:30 53° ENE 19:02:18 36° ESE
Cosmos 1455 2.2 18:57:17 10° NNW 19:01:05 79° W 19:04:54 10° S
CZ-4C R/B 3.8 18:57:56 10° WNW 19:02:38 27° NNW 19:06:30 16° NNE
Nadezhda 4 Rocket 3.9 18:56:54 10° S 19:03:10 88° WNW 19:09:25 10° N
Cosmos 2263 Rocket 3.8 19:00:16 10° WSW 19:05:17 31° NW 19:10:19 10° NNE
Cosmos 2058 Rocket 4.2 19:01:02 10° NNW 19:05:20 45° W 19:09:38 10° SSW
X-37B 2.4 19:03:32 10° SW 19:05:31 23° S 19:05:31 23° S
Cosmos 1703 4.1 19:04:33 10° S 19:07:02 36° SSE 19:07:02 36° SSE
CREW DRAGON DEMO-1 DEB 4.3 19:11:31 10° WNW 19:13:20 34° WNW 19:13:20 34° WNW
COSMOS 2406 3.7 19:09:38 10° NNW 19:14:49 40° NE 19:14:49 40° NE
ERS-2 3.0 19:16:36 28° N 19:18:10 49° WNW 19:21:40 10° SW
ARGOS 3.0 19:13:15 10° SSE 19:18:37 88° ENE 19:24:02 10° NNW
ISS -2.5 19:15:44 10° SW 19:17:58 36° SSW 19:17:58 36° SSW
Cosmos 44 4.1 19:15:32 10° S 19:18:46 35° SSE 19:18:46 35° SSE
Lacrosse 5 2.3 19:17:19 10° WNW 19:22:17 58° SW 19:24:15 34° SSE
PSLV R/B 4.4 19:19:54 23° N 19:22:21 60° WNW 19:26:30 10° SSW
CZ-2C R/B 2.7 19:27:19 57° ESE 19:27:19 57° ESE 19:32:26 10° S
CSL-04 Debris 4.2 19:23:33 10° S 19:28:56 76° WSW 19:34:21 10° NNW
Cosmos 1626 Rocket 3.8 19:25:27 10° SSW 19:29:48 68° W 19:31:13 41° N
NOSS 3-1 (C) 3.9 19:23:45 10° NW 19:31:07 78° NE 19:34:39 39° SE
CZ-4 R/B 3.2 19:29:13 10° SSW 19:32:56 32° W 19:36:36 10° NNW
COSMOS 2455 3.5 19:28:15 10° SW 19:34:07 52° NW 19:37:13 27° NNE
Cosmos 1553 Rocket 4.0 19:29:55 10° N 19:36:14 60° ENE 19:36:14 60° ENE
Cosmos 990 Rocket 4.0 19:31:48 10° SSW 19:36:25 67° SSE 19:36:25 67° SSE
Cosmos 1844 3.7 19:31:41 10° SSW 19:37:21 77° WNW 19:39:07 46° NNE
Cosmos 1833 Rocket 3.4 19:32:22 10° NNW 19:36:25 40° NNE 19:36:25 40° NNE
Cosmos 2082 Rocket 3.6 19:34:48 10° NNW 19:37:47 25° N 19:37:47 25° N
Cosmos 2026 Rocket 3.8 19:34:06 10° S 19:40:12 85° E 19:46:27 10° N
USA 281 4.2 19:43:33 30° NNE 19:43:33 30° NNE 19:47:43 10° NNW
SL-08 RB Rocket 4.3 19:43:21 50° NNW 19:43:21 50° NNW 19:46:45 10° NNW
Meteor 2-19 Rocket 4.4 19:39:05 10° S 19:44:22 63° SE 19:44:22 63° SE
USA 229 DEB 3.8 19:40:51 10° NW 19:48:08 74° NE 19:49:18 63° ESE
USA 229 3.8 19:40:58 10° NW 19:48:13 74° NE 19:49:21 63° E
USA 267 3.5 19:51:34 50° SSE 19:51:34 50° SSE 19:57:18 10° SSW
H-2A R/B 3.7 19:53:14 10° SSW 19:57:38 31° W 20:02:10 10° NNW
Cosmos 1844 Rocket 3.6 19:53:53 10° SW 19:59:20 46° NW 20:01:07 35° N
NOSS 3-1 (A) 3.9 19:56:19 10° NW 20:03:42 78° NE 20:04:26 72° E
Cosmos 1898 Rocket 4.4 20:00:32 10° SSW 20:04:03 43° SW 20:04:03 43° SW
ATLAS 2AS CENTAUR R/B 4.3 20:04:29 10° WNW 20:10:57 27° N 20:12:56 24° NNE
Cosmos 2098 Rocket 4.5 20:05:51 10° SSW 20:12:57 73° W 20:20:26 10° N
USA 234 3.4 20:27:40 66° NW 20:27:40 66° NW 20:33:13 10° NW
ATLAS 5 CENTAUR R/B 4.3 20:27:42 10° NW 20:29:10 14° NNW 20:29:10 14° NNW
SJ 16-02 3.9 20:30:22 10° W 20:33:02 18° WNW 20:33:02 18° WNW
CZ-4C R/B 4.4 20:48:34 10° NW 20:51:41 20° NNW 20:51:41 20° NNW
